Regional Weather Roundup
Issued by NWS

Home | Current Version | Previous Version | Graphics & Text | Print | Product List | Glossary On
Versions: 1 2 3 4 5 6 7 8 9 10 11 12 13 14 15 16 17 18 19 20 21 22 23 24 25 26 27 28 29 30 31 32 33 34 35 36 37 38 39 40 41 42 43 44 45 46 47 48 49 50
026
ASUS45 KBOU 050907
RWRCO

WEATHER ROUNDUP FOR COLORADO
NATIONAL WEATHER SERVICE DENVER/BOULDER CO
200 AM MST MON DEC 05 2016

NOTE: "FAIR" INDICATES FEW OR NO CLOUDS BELOW 12000 FEET WITH NO
SIGNIFICANT WEATHER AND/OR OBSTRUCTIONS TO VISIBILITY.

COZ001>005-013-030-031-051000-
...NORTHWEST COLORADO...

CITY           SKY/WX    TMP DP  RH WIND       PRES   REMARKS
CRAIG          FAIR      36  16  44 SW13      29.73F
HAYDEN         MOCLDY    27  16  63 E5        29.74F WCI  21
MEEKER         CLOUDY    37  15  40 SW5       29.81S
MOUNT WERNER   NOT AVBL
STEAMBOAT SPGS CLOUDY    23  19  83 CALM      29.75F
WALDEN           N/A     30  19  64 SW16      29.73S WCI  19
$$

COZ006>008-011-051000-
...WEST CENTRAL VALLEYS...

CITY           SKY/WX    TMP DP  RH WIND       PRES   REMARKS
GRAND JUNCTION FAIR      27  20  75 E6        29.88F WCI  20
MONTROSE       FAIR      27  19  72 CALM      29.90F
EAGLE          CLOUDY    27  18  69 E6        29.82F WCI  20
RIFLE          MOCLDY    27  21  78 S5        29.87F WCI  22
DELTA          NOT AVBL
NUCLA          FAIR      27  16  63 S5        29.96F WCI  21
$$

COZ017>023-064>068-051000-
...SOUTHWEST COLORADO...

CITY           SKY/WX    TMP DP  RH WIND       PRES   REMARKS
DURANGO        FAIR      18  14  84 CALM      29.99F
CORTEZ         FAIR      19  15  84 E5        29.97F WCI  12
PAGOSA SPRINGS FAIR      17  16  96 CALM      29.98F
TELLURIDE      NOT AVBL
WOLF CREEK PAS FAIR      16  12  86 SW20G29   30.00F WCI  -1
$$

COZ009-010-012-014-032>034-037-058>063-051000-
...CENTRAL COLORADO...

CITY           SKY/WX    TMP DP  RH WIND       PRES   REMARKS
ASPEN          CLOUDY    31  21  66 N8        29.80F WCI  23
BUENA VISTA    FAIR      37  11  34 SW12G30   29.81F
COPPER MTN     CLOUDY    28  12  50 MISG      29.85F
BERTHOUD PASS  CLOUDY    18   5  57 W18G32    29.80F WCI   2
COTTONWOOD PAS FAIR      34  10  37 W31G46    29.81F WCI  20
GUNNISON       FAIR       8   4  83 W5        29.96F WCI   0
KREMMLING      MOCLDY    41  19  42 W15       29.77S
LEADVILLE      MOCLDY    27  12  53 VRB3      29.82F
MONARCH PASS   FAIR      19  10  68 W32       30.02R WCI   0
SALIDA         FAIR      36  10  34 SW14      29.89F
SUNLIGHT       MOCLDY    19  14  79 SW22G37   29.85F WCI   3
WILKERSON PASS FAIR      27  10  50 W13G28    29.84S WCI  16
$$

COZ069>075-051000-
...SAN LUIS VALLEY/SANGRE DE CRISTO MOUNTAINS...

CITY           SKY/WX    TMP DP  RH WIND       PRES   REMARKS
ALAMOSA        FAIR       3   0  87 VRB3      29.92F
LA VETA PASS   FAIR      27  12  54 NE29G49   29.82F WCI  11
SAGUACHE       FAIR      12   5  73 NW9       29.94F WCI   0
$$

COZ035-036-038>040-051000-
...NORTHERN COLORADO FRONT RANGE...

CITY           SKY/WX    TMP DP  RH WIND       PRES   REMARKS
DENVER INTL AP FAIR      31  15  52 SE7       29.63F WCI  24
DMNS CITY PARK   N/A     32  15  49 E10       29.63S WCI  24
AURORA         PTCLDY    38  16  40 S8        29.64F
FRONT RANGE AP FAIR      37  19  48 SW3       29.64F
ERIE MUNI ARPT FAIR      46  17  31 CALM      29.61F
BOULDER MUN AP FAIR      52  19  28 SW14G29   29.59F
CENTENNIAL     FAIR      38  16  40 VRB3      29.64F
BROOMFIELD     FAIR      36  16  44 E14       29.62F
FORT COLLINS   FAIR      39  16  38 E8        29.61F
LONGMONT       FAIR      37  17  44 SE7       29.62F
$$

COZ041-046-047-076>085-087-088-051000-
...PIKES PEAK/PALMER DIVIDE AND SOUTHERN FOOTHILLS...

CITY           SKY/WX    TMP DP  RH WIND       PRES   REMARKS
COLO. SPRINGS  FAIR      33  11  39 NE13      29.72F WCI  24
A. F. ACADEMY  FAIR      28  11  47 CALM      29.70F
SCHRIEVER AFB  NOT AVBL
ELLICOTT       FAIR     N/A N/A N/A SW14      29.69F
FALCON         FAIR      33  11  40 S5        29.72F WCI  28
FORT CARSON    FAIR      30  11  45 N6        29.69F WCI  24
LIMON          FAIR      16  11  80 N7        29.67F WCI   6
MONUMENT HILL  FAIR      30  14  51 S8        29.71F WCI  23
TRINIDAD       FAIR      35  12  38 W7        29.76F WCI  29
$$

COZ042>045-048>051-090-091-051000-
...NORTHEAST COLORADO...

CITY           SKY/WX    TMP DP  RH WIND       PRES   REMARKS
GREELEY ARPT   FAIR      24  14  65 VRB3      29.64F
AKRON          FAIR      31  12  45 W10       29.65F WCI  22
BURLINGTON     FAIR      32  15  49 SW12      29.66F WCI  23
WRAY           NOT AVBL
STERLING       FAIR      27  16  63 CALM      29.66R
HOLYOKE        FAIR      34  18  51 W5        29.64F WCI  30
FORT MORGAN    FAIR      28  12  52 NW5       29.66S WCI  22
$$

COZ086-089-092>099-051000-
...SOUTHEAST COLORADO...

CITY           SKY/WX    TMP DP  RH WIND       PRES   REMARKS
PUEBLO         FAIR      25  13  60 NW8       29.71F WCI  16
LA JUNTA       FAIR      27  15  61 W6        29.71F WCI  20
LAMAR          MIX PCPN  20  14  77 CALM      29.71S
SPRINGFIELD      N/A     24  17  74 VRB3      29.74S
$$




USA.gov is the U.S. government's official web portal to all federal, state and local government web resources and services.